Hourly Data Report for May 21, 2021

MIRAMICHI RCS
NEW BRUNSWICK
Current Station Operator: ECCC - MSC

47°00'34.000" N
65°27'54.000" W
33.00 m
8100989
71744
ACQ

Download Data

Hourly Data (May 2021)
Hourly Data Report for May 21, 2021
TIME
LST
Temp Definition
°C
Dew Point Definition
°C
Rel Hum Definition
%
Precip. Amount Definition
mm

Wind Dir Definition
10's deg

Wind Spd Definition
km/h
Visibility Definition
km
Stn Press Definition
kPa
Hmdx Definition


Wind Chill Definition


Weather Definition


00:00 16.1 8.8 62 LegendMM 21 21   102.37     LegendNANA
01:00 15.5 8.5 63 LegendMM 22 18   102.38     LegendNANA
02:00 14.9 8.4 65 LegendMM 22 19   102.35     LegendNANA
03:00 14.3 8.5 68 LegendMM 23 17   102.35     LegendNANA
04:00 13.8 8.5 70 LegendMM 22 16   102.34     LegendNANA
05:00 13.3 8.4 72 LegendMM 23 16   102.37     LegendNANA
06:00 13.8 8.7 72 LegendMM 22 17   102.39     LegendNANA
07:00 15.3 9.1 67 LegendMM 22 17   102.41     LegendNANA
08:00 15.6 9.3 66 LegendMM 22 18   102.42     LegendNANA
09:00 17.0 9.8 63 LegendMM 21 17   102.43     LegendNANA
10:00 18.8 10.3 58 LegendMM 19 18   102.35     LegendNANA
11:00 21.9 10.7 49 LegendMM 21 16   102.27     LegendNANA
12:00 24.5 11.5 44 LegendMM 19 18   102.18 27   LegendNANA
13:00 27.1 12.6 41 LegendMM 20 20   102.07 30   LegendNANA
14:00 28.5 13.1 39 LegendMM 21 22   101.99 31   LegendNANA
15:00 28.9 13.6 39 LegendMM 21 27   101.89 32   LegendNANA
16:00 29.0 14.1 40 LegendMM 21 23   101.82 32   LegendNANA
17:00 27.3 13.5 43 LegendMM 19 19   101.81 30   LegendNANA
18:00 26.2 13.4 45 LegendMM 20 27   101.82 29   LegendNANA
19:00 23.3 17.1 68 LegendMM 23 18   101.89 29   LegendNANA
20:00 21.8 14.1 62 LegendMM 22 19   101.92 25   LegendNANA
21:00 20.4 14.4 68 LegendMM 22 19   101.93     LegendNANA
22:00 19.3 14.2 72 LegendMM 22 19   101.88     LegendNANA
23:00 18.7 13.4 71 LegendMM 22 21   101.82     LegendNANA

Notes on Data Quality.

Legend

  • E = Estimated
  • M = Missing
  • NA = Not Available*
  • [empty] = Indicates an unobserved value
Date modified: